• In Deutschland
  • Länderverzeichnis
  • Für 7 Tage
  • Wassertemperatur
  • Satellitenkarten
  • Wetterkarte
  • Widgets
  • user-avatar
    Anmelden

    Stündliche Wetter Barsinghausen

    Heute, 20 Februar, Dienstag

    Zeit Temperatur Niederschläge Wind Luftdruck Luftfeuchtigkeit
    00:00 0°C° 0 mm 1 m/S 745 mmHg 81%
    01:00 -1°C° 0 mm 1 m/S 745 mmHg 82%
    02:00 -1°C° 0 mm 1 m/S 745 mmHg 82%
    03:00 -1°C° 0 mm 1 m/S 745 mmHg 83%
    04:00 -1°C° 0 mm 1 m/S 745 mmHg 83%
    05:00 -1°C° 0 mm 1 m/S 745 mmHg 84%
    06:00 -1°C° 0 mm 1 m/S 745 mmHg 85%
    07:00 -1°C° 0 mm 1 m/S 745 mmHg 85%
    08:00 -2°C° 0 mm 2 m/S 745 mmHg 80%
    09:00 -1°C° 0 mm 2 m/S 746 mmHg 74%
    10:00 +1°C° 0 mm 2 m/S 746 mmHg 68%
    11:00 0°C° 0 mm 3 m/S 746 mmHg 64%
    12:00 +1°C° 0 mm 3 m/S 746 mmHg 60%
    13:00 +2°C° 0 mm 3 m/S 746 mmHg 56%
    14:00 +2°C° 0 mm 3 m/S 746 mmHg 57%
    15:00 +2°C° 0 mm 3 m/S 746 mmHg 58%
    16:00 +2°C° 0 mm 3 m/S 746 mmHg 59%
    17:00 +1°C° 0 mm 3 m/S 747 mmHg 65%
    18:00 -1°C° 0 mm 3 m/S 747 mmHg 72%
    19:00 -2°C° 0 mm 2 m/S 748 mmHg 78%
    20:00 -2°C° 0 mm 2 m/S 748 mmHg 80%
    21:00 -3°C° 0 mm 2 m/S 749 mmHg 82%
    22:00 -3°C° 0 mm 2 m/S 749 mmHg 84%
    23:00 -3°C° 0 mm 2 m/S 749 mmHg 85%

    Morgen, 21 Februar, Mittwoch

    Zeit Temperatur Niederschläge Wind Luftdruck Luftfeuchtigkeit
    00:00 -4°C° 0 mm 2 m/S 750 mmHg 86%
    01:00 -4°C° 0 mm 2 m/S 750 mmHg 87%
    02:00 -4°C° 0 mm 2 m/S 750 mmHg 87%
    03:00 -4°C° 0 mm 2 m/S 750 mmHg 87%
    04:00 -2°C° 0 mm 1 m/S 750 mmHg 87%
    05:00 -2°C° 0 mm 1 m/S 750 mmHg 86%
    06:00 -2°C° 0 mm 1 m/S 750 mmHg 86%
    07:00 -2°C° 0 mm 1 m/S 750 mmHg 85%
    08:00 -3°C° 0 mm 2 m/S 750 mmHg 79%
    09:00 -2°C° 0 mm 2 m/S 751 mmHg 73%
    10:00 -1°C° 0 mm 2 m/S 751 mmHg 67%
    11:00 +1°C° 0 mm 2 m/S 751 mmHg 63%
    12:00 +1°C° 0 mm 2 m/S 750 mmHg 58%
    13:00 +1°C° 0 mm 3 m/S 750 mmHg 53%
    14:00 +1°C° 0 mm 3 m/S 750 mmHg 54%
    15:00 +1°C° 0 mm 3 m/S 750 mmHg 54%
    16:00 +1°C° 0 mm 3 m/S 750 mmHg 55%
    17:00 0°C° 0 mm 3 m/S 750 mmHg 61%
    18:00 -1°C° 0 mm 2 m/S 750 mmHg 66%
    19:00 -2°C° 0 mm 2 m/S 750 mmHg 72%
    20:00 -3°C° 0 mm 2 m/S 750 mmHg 74%
    21:00 -3°C° 0 mm 2 m/S 751 mmHg 75%
    22:00 -3°C° 0 mm 2 m/S 751 mmHg 77%
    23:00 -4°C° 0 mm 2 m/S 751 mmHg 77%

    übermorgen, 22 Februar, Donnerstag

    Zeit Temperatur Niederschläge Wind Luftdruck Luftfeuchtigkeit
    00:00 -4°C° 0 mm 2 m/S 751 mmHg 78%
    01:00 -4°C° 0 mm 2 m/S 751 mmHg 79%
    02:00 -4°C° 0 mm 2 m/S 751 mmHg 79%
    03:00 -4°C° 0 mm 2 m/S 751 mmHg 80%
    04:00 -4°C° 0 mm 2 m/S 750 mmHg 81%
    05:00 -4°C° 0 mm 2 m/S 751 mmHg 80%
    06:00 -4°C° 0 mm 2 m/S 751 mmHg 80%
    07:00 -4°C° 0 mm 2 m/S 751 mmHg 80%
    08:00 -5°C° 0 mm 3 m/S 751 mmHg 72%
    09:00 -4°C° 0 mm 3 m/S 751 mmHg 64%
    10:00 -3°C° 0 mm 4 m/S 751 mmHg 57%
    11:00 -2°C° 0 mm 4 m/S 751 mmHg 53%
    12:00 -1°C° 0 mm 4 m/S 751 mmHg 50%
    13:00 0°C° 0 mm 4 m/S 751 mmHg 46%
    14:00 0°C° 0 mm 4 m/S 750 mmHg 48%
    15:00 0°C° 0 mm 4 m/S 750 mmHg 50%
    16:00 0°C° 0 mm 4 m/S 750 mmHg 51%
    17:00 -1°C° 0 mm 4 m/S 750 mmHg 58%
    18:00 -1°C° 0 mm 3 m/S 750 mmHg 64%
    19:00 -4°C° 0 mm 3 m/S 750 mmHg 71%
    20:00 -4°C° 0 mm 3 m/S 750 mmHg 74%
    21:00 -4°C° 0 mm 3 m/S 750 mmHg 77%
    22:00 -4°C° 0 mm 3 m/S 750 mmHg 80%
    23:00 -5°C° 0 mm 3 m/S 750 mmHg 83%

    23 Februar, Freitag

    Zeit Temperatur Niederschläge Wind Luftdruck Luftfeuchtigkeit
    00:00 -5°C° 0 mm 3 m/S 750 mmHg 85%
    01:00 -5°C° 0 mm 3 m/S 750 mmHg 87%
    02:00 -5°C° 0 mm 3 m/S 750 mmHg 87%
    03:00 -6°C° 0 mm 3 m/S 750 mmHg 87%
    04:00 -6°C° 0 mm 3 m/S 750 mmHg 87%
    05:00 -6°C° 0 mm 3 m/S 750 mmHg 86%
    06:00 -6°C° 0 mm 3 m/S 751 mmHg 86%
    07:00 -6°C° 0 mm 3 m/S 751 mmHg 85%
    08:00 -5°C° 0 mm 3 m/S 751 mmHg 78%
    09:00 -4°C° 0 mm 4 m/S 752 mmHg 72%
    10:00 -3°C° 0 mm 4 m/S 752 mmHg 65%
    11:00 -3°C° 0 mm 4 m/S 752 mmHg 61%
    12:00 -2°C° 0 mm 4 m/S 752 mmHg 56%
    13:00 -1°C° 0 mm 4 m/S 752 mmHg 52%
    14:00 -1°C° 0 mm 4 m/S 752 mmHg 51%
    15:00 -1°C° 0 mm 4 m/S 752 mmHg 50%
    16:00 -1°C° 0 mm 4 m/S 752 mmHg 49%
    17:00 -2°C° 0 mm 4 m/S 752 mmHg 54%
    18:00 -3°C° 0 mm 4 m/S 752 mmHg 59%
    19:00 -4°C° 0 mm 3 m/S 752 mmHg 64%
    20:00 -4°C° 0 mm 3 m/S 753 mmHg 66%
    21:00 -4°C° 0 mm 4 m/S 753 mmHg 69%
    22:00 -5°C° 0 mm 4 m/S 753 mmHg 71%
    23:00 -5°C° 0 mm 4 m/S 753 mmHg 72%

    24 Februar, Samstag

    Zeit Temperatur Niederschläge Wind Luftdruck Luftfeuchtigkeit
    00:00 -5°C° 0 mm 3 m/S 754 mmHg 73%
    01:00 -5°C° 0 mm 3 m/S 754 mmHg 74%
    02:00 -5°C° 0 mm 3 m/S 754 mmHg 74%
    03:00 -5°C° 0 mm 3 m/S 754 mmHg 75%
    04:00 -6°C° 0 mm 3 m/S 754 mmHg 75%
    05:00 -7°C° 0 mm 4 m/S 754 mmHg 75%
    06:00 -7°C° 0 mm 4 m/S 754 mmHg 74%
    07:00 -7°C° 0 mm 4 m/S 754 mmHg 73%
    08:00 -6°C° 0 mm 5 m/S 754 mmHg 68%
    09:00 -5°C° 0 mm 6 m/S 755 mmHg 62%
    10:00 -6°C° 0 mm 7 m/S 755 mmHg 57%
    11:00 -4°C° 0 mm 7 m/S 755 mmHg 53%
    12:00 -4°C° 0 mm 7 m/S 755 mmHg 49%
    13:00 -3°C° 0 mm 7 m/S 755 mmHg 45%
    14:00 -3°C° 0 mm 7 m/S 755 mmHg 43%
    15:00 -3°C° 0 mm 7 m/S 754 mmHg 42%
    16:00 -3°C° 0 mm 7 m/S 754 mmHg 41%
    17:00 -4°C° 0 mm 6 m/S 754 mmHg 44%
    18:00 -5°C° 0 mm 6 m/S 755 mmHg 47%
    19:00 -6°C° 0 mm 5 m/S 755 mmHg 51%
    20:00 -7°C° 0 mm 5 m/S 755 mmHg 51%
    21:00 -7°C° 0 mm 5 m/S 755 mmHg 52%
    22:00 -8°C° 0 mm 6 m/S 755 mmHg 53%
    23:00 -7°C° 0 mm 5 m/S 755 mmHg 53%

    25 Februar, Sonntag

    Zeit Temperatur Niederschläge Wind Luftdruck Luftfeuchtigkeit
    00:00 -8°C° 0 mm 5 m/S 755 mmHg 54%
    01:00 -8°C° 0 mm 5 m/S 755 mmHg 54%
    02:00 -8°C° 0 mm 5 m/S 755 mmHg 53%
    03:00 -8°C° 0 mm 5 m/S 755 mmHg 52%
    04:00 -10°C° 0 mm 5 m/S 755 mmHg 51%
    05:00 -10°C° 0 mm 5 m/S 755 mmHg 51%
    06:00 -10°C° 0 mm 5 m/S 755 mmHg 51%
    07:00 -10°C° 0 mm 5 m/S 755 mmHg 51%
    08:00 -10°C° 0 mm 5 m/S 755 mmHg 48%
    09:00 -9°C° 0 mm 6 m/S 755 mmHg 45%
    10:00 -9°C° 0 mm 6 m/S 755 mmHg 42%
    11:00 -8°C° 0 mm 6 m/S 755 mmHg 39%
    12:00 -7°C° 0 mm 7 m/S 754 mmHg 36%
    13:00 -7°C° 0 mm 7 m/S 754 mmHg 34%
    14:00 -7°C° 0 mm 7 m/S 754 mmHg 32%
    15:00 -7°C° 0 mm 7 m/S 754 mmHg 31%
    16:00 -7°C° 0 mm 7 m/S 753 mmHg 30%
    17:00 -6°C° 0 mm 6 m/S 753 mmHg 33%
    18:00 -7°C° 0 mm 5 m/S 754 mmHg 37%
    19:00 -8°C° 0 mm 5 m/S 754 mmHg 40%
    20:00 -8°C° 0 mm 5 m/S 754 mmHg 43%
    21:00 -8°C° 0 mm 5 m/S 754 mmHg 46%
    22:00 -10°C° 0 mm 5 m/S 754 mmHg 49%
    23:00 -10°C° 0 mm 5 m/S 754 mmHg 50%
    Mehr zeigen